Otar Kvilitaia

Recruteur - Lokomotivi
3 Déc 2028
Dimanche
Processus

Personnalité

Adaptabilité (9) Ambition (5) Controverse (14) Loyauté (3) Pression (12) Professionnalisme (15) Sportivité (11) Tempérament (10)

Profil

Style d'entraînement Démocratique
Diplôme National A
Détermination 5
Gestion des joueurs 6
Motivation 10
Discipline 2
Satisfaction professionnelle
100%
Fatigue
0%
Rôle Recruteur
Salaire 14.9K p/s
Contrat 14.03.2030

Performance

Comportement Bon
Efficacité de l'entraînement
30%
Développement des joueurs
45%
Prévention des blessures
15%
Mise en place tactique
20%

Événements récents

A participé à une réunion de recrutement 7j
A participé à une réunion de recrutement 14j
A participé à une réunion de recrutement 21j
A participé à une réunion de recrutement 28j
A participé à une réunion de recrutement 35j
A participé à une réunion de recrutement 42j
A participé à une réunion de recrutement 49j
A participé à une réunion de recrutement 56j

Suivi en cours

65
Joueur Club Statut Capacité Confiance Observé Dernière observation Dernier vote
Germán Cervera Alvarado Négociation 85 / 113 40% 1 21.08.2028 -
Sebastián Cocimano Nueva Chicago Actif 97 / 119 40% 1 21.08.2028 -
Paolo Yrizar Chernomorets Négociation 88 / 97 40% 2 29.06.2028 -
Leandro Antunes Al-Riyadh Actif 121 / 115 40% 6 29.06.2028 -
Will Davies Fleetwood Town Actif 81 / 97 40% 1 28.06.2028 -
Ismail Achik Salernitana Actif 92 / 108 40% 1 28.06.2028 -
Rushian Hepburn-Murphy Milton Keynes Dons Actif 102 / 99 40% 1 26.06.2028 -
Daniel Barrea Godoy Cruz Actif 122 / 114 40% 1 26.06.2028 -
Bashar Musa US Forces Armees Actif 86 / 79 40% 1 22.06.2028 -
Tyler Walker Barrow AFC Négociation 92 / 98 40% 1 22.06.2028 -
Ben Waine Port Vale Actif 105 / 116 40% 1 20.06.2028 -
Michele Emmausso Cosenza Actif 98 / 97 40% 1 20.06.2028 -
Millar Matthews-Lewis Tranmere Rovers Actif 87 / 88 40% 1 19.06.2028 -
Alessandro Bolzan Arzignano Actif 112 / 109 40% 1 19.06.2028 -
Jan Cedilnik Chikhura Actif 93 / 94 48% 1 06.06.2028 -
Nika Dumbadze Dinamo Batumi Actif 83 / 83 48% 1 02.06.2028 -
Giacomo Zecca Torres Actif 112 / 104 40% 1 31.05.2028 -
Gennaro Tutino Sampdoria Actif 119 / 129 40% 1 31.05.2028 -
Lisandro Cabrera Maipú Actif 100 / 116 40% 1 01.01.2028 -
Fabricio Rojas Khazar Actif 125 / 114 40% 1 01.01.2028 -
Sagir Arce Saburtalo Actif 102 / 98 40% 1 16.08.2027 -
Davit Gotsiridze Kolkheti Actif 92 / 95 48% 1 09.08.2027 -
Davit Kvaratskhelia Zugdidi Actif 77 / 88 44% 1 01.06.2027 -
Stanislav Biblyk Chaika Actif 92 / 92 40% 1 01.06.2027 -
Ramazan Gadjimuradov Chelyabinsk Actif 123 / 107 40% 2 31.05.2027 -
Mohau Nkota Al-Ettifaq Actif 115 / 123 40% 3 31.05.2027 -
Kamran Aliev SKA Khabarovsk Actif 115 / 110 40% 2 21.05.2027 -
Ruslan Apekov Torpedo Moscow Actif 93 / 112 40% 4 21.05.2027 -
Joe Snowdon Swindon Town Actif 87 / 77 40% 5 16.05.2027 -
Ekain Orobengoa Real Sociedad Actif 83 / 88 40% 1 15.05.2027 -
Ilja Safronov Rotor Actif 101 / 113 40% 1 15.05.2027 -
Alexis Coman Chaika Actif 95 / 90 40% 1 14.05.2027 -
Peter Olayinka Al-Wehda Actif 128 / 103 40% 1 08.05.2027 -
Nikita Demchenko Spartak Kostroma Actif 106 / 85 40% 1 03.05.2027 -
Tudor Mendel-Idowu Gubbio Actif 92 / 83 40% 2 24.04.2027 -
Aboubacar Doumbia Al-Orobah Actif 82 / 111 40% 1 24.04.2027 -
Vasily Cherov Ufa Actif 94 / 88 40% 2 22.04.2027 -
Iker Pozo Rodina Actif 117 / 124 40% 1 19.04.2027 -
Đorđe Pantelić Spartak Kostroma Actif 116 / 109 40% 1 19.04.2027 -
Rakan Al-Shamlan Al-Ta'ee Actif 69 / 94 40% 1 17.04.2027 -
Krasian Kolev Chernomorets Actif 100 / 92 40% 1 12.04.2027 -
Yakou Meïté Damac Actif 123 / 111 40% 2 09.04.2027 -
Khalid Al-Ghannam Al-Ettifaq Actif 123 / 110 40% 2 09.04.2027 -
Darío Ramírez Real Sociedad Actif 72 / 107 40% 1 04.04.2027 -
Timofey Shipunov Ufa Actif 78 / 90 40% 2 03.04.2027 -
Teddy Okou Al-Riyadh Actif 127 / 115 40% 1 02.04.2027 -
Nuri Abdokov Fakel Actif 108 / 109 40% 1 01.04.2027 -
Temirkan Sundukov Dinamo Makhachkala Actif 106 / 117 40% 1 29.03.2027 -
Maxime Sivis Orenburg Actif 103 / 116 40% 1 26.03.2027 -
Rashid Al-Salem Al-Mojzel Actif 105 / 98 40% 1 26.03.2027 -
Vyacheslav Grulev Nizhniy Novgorod Actif 120 / 119 40% 1 23.03.2027 -
Kirill Malyarov Shinnik Actif 100 / 97 40% 1 21.03.2027 -
Andrey Nikitin Neftekhimik Actif 89 / 95 40% 1 20.03.2027 -
Ilja Berkovskiy Torpedo Moscow Actif 94 / 102 40% 1 20.03.2027 -
Jon Eceizabarrena Real Sociedad Actif 107 / 103 40% 1 18.03.2027 -
George Edmundson Middlesbrough Actif 118 / 120 40% 1 13.09.2026 -
Jaïro Riedewald Sheffield United Actif 106 / 111 40% 1 13.09.2026 -
Tornike Jangidze Samtredia Actif 89 / 74 40% 1 10.09.2026 -
Beka Dartsmelia Saburtalo Actif 97 / 104 40% 1 09.09.2026 -
Gady Beyuku Blackburn Rovers Actif 95 / 130 40% 1 08.09.2026 -
Giorgi Akhaladze Kolkheti Actif 105 / 90 40% 1 08.09.2026 -
Tornike Grigalashvili Guria Actif 71 / 100 44% 1 31.08.2026 -
Gonzalo Tapia Palestino Actif 90 / 97 40% 1 05.08.2026 -
David Agudelo Depor Actif 95 / 76 40% 1 01.08.2026 -
Tomás Ahumada Audax Italiano Actif 81 / 97 40% 1 01.08.2026 -